Location: NCO
(38.4404°N, 77.1340°W)
Time: 20:02:37
(UTC-05:00)

Tiangong 1 - Visible Passes

Search period start: 20 November 2017 00:00
Search period end: 30 November 2017 00:00
Orbit: 285 x 308 km, 42.8° (Epoch: 20 November)

Date Brightness Start Highest point End Pass type
(mag) Time Alt. Az. Time Alt. Az. Time Alt. Az.
24 Nov 2.4 17:42:24 10° SSW 17:44:24 20° SSE 17:45:39 15° ESE visible
25 Nov 1.2 17:48:21 10° SW 17:50:49 41° SSE 17:51:59 24° E visible
26 Nov 0.4 17:54:37 10° WSW 17:57:12 88° SE 17:58:10 34° ENE visible
27 Nov 1.0 18:01:00 10° W 18:03:32 50° NNW 18:04:11 37° NE visible
28 Nov 1.5 18:07:24 10° W 18:09:49 35° N 18:10:05 33° N visible
29 Nov 1.9 18:13:41 10° WNW 18:15:52 29° NNW 18:15:52 29° NNW visible
